Flag for Libya

Past Weather in Tripoli, Libya — Yesterday and Last 2 Weeks

Now
82 °F

Passing clouds.


Feels Like: 85 °F
Forecast: 84 / 80 °F
Wind: 15 mph from Northeast

Location: Djerba Mellita

Current Time: Aug 5, 2020 at 1:43:04 am

Latest Report: Aug 5, 2020 at 1:00 am


Visibility: N/A

Pressure: 29.86 "Hg

Humidity: 62%

Dew Point: 68 °F

Location of TripoliLocation

Past Weather in Tripoli — Graph

°F

Tripoli Temperature Yesterday

Maximum temperature yesterday: 93 °F (at 10:30 am)
Minimum temperature yesterday: 82 °F (at 7:00 am)
Average temperature yesterday: 86 °F

High & Low Weather Summary for the Past Weeks

 TemperatureHumidityPressure
High108 °F (Aug 2, 5:00 pm)100% (Jul 21, 7:30 am)30.09 "Hg (Jul 21, 7:30 am)
Low70 °F (Jul 23, 6:30 am)10% (Aug 2, 5:00 pm)29.68 "Hg (Aug 3, 6:30 pm)
Average84 °F59%29.94 "Hg
* Reported Jul 21 12:30 am — Aug 5 12:00 am, Tripoli. Weather by CustomWeather, © 2020

Note: Actual official high and low records may vary slightly from our data, if they occured in-between our weather recording intervals... More about our weather records

Tripoli Weather History for the Previous 24 Hours

Scroll right to see more
 ConditionsComfort  
Time TempWeatherWind HumidityBarometerVisibility
12:00 am
Wed, Aug 5
82 °FPassing clouds.15 mph66%29.86 "HgN/A
11:30 pm
Tue, Aug 4
82 °FPassing clouds.16 mph66%29.86 "HgN/A
11:00 pm84 °FPassing clouds.18 mph62%29.86 "HgN/A
10:30 pm84 °FPassing clouds.16 mph62%29.83 "HgN/A
10:00 pm84 °FPassing clouds.15 mph58%29.83 "HgN/A
9:30 pm84 °FPassing clouds.17 mph58%29.83 "HgN/A
9:00 pm84 °FPassing clouds.16 mph58%29.80 "HgN/A
8:30 pm84 °FPassing clouds.18 mph58%29.80 "HgN/A
8:00 pm84 °FPassing clouds.22 mph62%29.80 "HgN/A
7:30 pm86 °FSunny.24 mph59%29.80 "Hg10 mi
7:00 pm86 °FSunny.21 mph59%29.77 "Hg10 mi
6:30 pm86 °FSunny.21 mph59%29.77 "Hg10 mi
6:00 pm86 °FSunny.24 mph66%29.80 "Hg10 mi
5:30 pm86 °FSunny.24 mph66%29.77 "Hg10 mi
5:00 pm88 °FSunny.22 mph62%29.80 "Hg10 mi
4:30 pm88 °FSunny.21 mph62%29.80 "Hg10 mi
4:00 pm88 °FSunny.21 mph59%29.80 "Hg10 mi
3:30 pm88 °FSunny.22 mph62%29.80 "Hg10 mi
3:00 pm88 °FSunny.22 mph66%29.83 "Hg10 mi
2:30 pm90 °FSunny.21 mph67%29.83 "Hg10 mi
2:00 pm90 °FPassing clouds.22 mph59%29.83 "HgN/A
1:30 pm91 °FPassing clouds.21 mph52%29.83 "HgN/A
1:00 pm90 °FPassing clouds.20 mph49%29.83 "HgN/A
12:30 pm90 °FPassing clouds.18 mph55%29.83 "HgN/A
12:00 pm90 °FPassing clouds.16 mph55%29.83 "HgN/A
11:30 am90 °FPassing clouds.14 mph55%29.83 "HgN/A
11:00 am90 °FPassing clouds.17 mph67%29.83 "HgN/A
10:30 am93 °FPassing clouds.2 mph41%29.83 "HgN/A
10:00 am90 °FPassing clouds.5 mph49%29.80 "HgN/A
9:30 am88 °FPassing clouds.5 mph52%29.80 "HgN/A
9:00 am86 °FPassing clouds.7 mph55%29.77 "HgN/A
8:30 am84 °FPassing clouds.5 mph58%29.77 "HgN/A
8:00 am84 °FPassing clouds.2 mph58%29.77 "HgN/A
7:30 am84 °FPassing clouds.3 mph58%29.77 "HgN/A
7:00 am82 °FSunny.7 mph62%29.77 "Hg10 mi
6:30 am84 °FClear.9 mph58%29.77 "Hg10 mi
6:00 am84 °FClear.8 mph62%29.77 "Hg10 mi
5:30 am84 °FClear.12 mph62%29.77 "Hg10 mi
5:00 am84 °FClear.12 mph62%29.77 "Hg10 mi
4:30 am84 °FClear.15 mph62%29.77 "Hg10 mi
4:00 am84 °FClear.17 mph62%29.80 "Hg10 mi
3:30 am84 °FClear.18 mph70%29.80 "Hg10 mi
2:00 am86 °FClear.15 mph70%29.80 "Hg10 mi
1:30 am86 °FClear.23 mph70%29.80 "Hg10 mi
1:00 am86 °FClear.26 mph75%29.80 "Hg10 mi
Weather by CustomWeather, © 2020

See weather overview